[[{"header":{"parameterUnit":"m.s-1","parameterCategory":1,"la1":30.2991,"la2":30.254,"lo1":-89.0895,"lo2":-89.0444,"dy":0.0017,"dx":0.0017,"nx":28,"ny":28,"refTime":"2025-04-11T03:00:00:Z","depth":0,"parameterNumber":2,"parameterNumberName":"U-component_of_WINDS"},"data":[0,0,0,0,0,0,0,0,0,0,0,0,0,0,0,0,0,0,0,0,0,0,0,0,0,0,0,0,0,0,0,0,0,0,0,0,0,0,0,0,0,0,0,0,0,0,0,0,0,0,0,0,0,0,0,0,0,0,3.0598,3.0598,0,3.0618,3.0618,3.0618,3.0571,3.0569,3.0568,3.0566,3.0585,3.0587,3.0589,0,0,0,0,0,0,0,0,0,0,0,0,0,3.052,3.0522,3.0598,3.0598,3.0599,3.0618,3.0618,3.0618,3.0571,3.0569,3.0567,3.0566,3.0584,3.0586,3.0589,0,0,0,0,0,0,0,0,0,0,0,0,0,3.0548,3.0523,3.0598,3.0578,3.0576,3.0618,3.0618,3.0618,3.0571,3.0569,3.0567,3.0565,3.0583,3.0586,3.0589,3.0651,0,0,3.0598,3.0599,0,0,0,0,0,0,0,0,3.0547,3.0551,3.058,3.0579,3.0577,3.059,3.0597,3.0629,3.0572,3.0573,3.0566,3.0564,3.0588,3.059,3.0599,3.0652,3.0653,3.0598,3.06,3.0601,3.0602,0,0,0,0,0,0,0,3.0545,3.055,3.0606,3.0581,3.0579,3.0567,3.0569,3.0603,3.0593,3.0573,3.057,3.0573,3.0587,3.0596,3.0599,3.0653,3.0598,3.06,3.0602,3.0603,3.0759,3.0762,0,0,0,0,0,0,3.0546,3.0549,3.0605,3.0606,3.0556,3.0571,3.0572,3.0588,3.0592,3.0591,3.0574,3.057,3.0593,3.0596,3.0599,3.0673,3.0601,3.0603,3.0605,3.0757,3.076,3.0763,0,0,0,0,0,0,3.0544,3.0551,3.0604,3.0577,3.0583,3.0574,3.0592,3.0589,3.0599,3.0594,3.0591,3.0586,3.0591,3.0595,3.0639,3.0673,3.0605,3.0607,3.0754,3.0758,3.0761,3.0821,0,0,0,0,0,0,3.0542,3.0551,3.0574,3.0578,3.0584,3.0644,3.0594,3.0591,3.0604,3.0599,3.0604,3.0602,3.059,3.0635,3.0642,3.0676,3.0609,3.0751,3.0756,3.076,3.0816,3.0826,3.0835,0,0,0,0,0,3.054,3.059,3.0576,3.0583,3.0613,3.0646,3.065,3.0634,3.0607,3.063,3.0627,3.0602,3.0669,3.064,3.0647,3.0683,3.0749,3.0754,3.076,3.0812,3.0824,3.0835,0,0,0,0,0,0,3.0589,3.059,3.0574,3.0627,3.0637,3.0638,3.0667,3.0648,3.0665,3.0659,3.0639,3.0641,3.0688,3.069,3.0658,3.0744,3.0704,3.0711,3.0741,3.0753,3.0762,3.0761,3.0612,0,0,0,0,0,3.0607,3.0634,3.0632,3.0679,3.0685,3.0675,3.0689,3.0676,3.0685,3.0689,3.0689,3.0699,3.0722,3.0737,3.0758,3.0816,3.0817,3.0844,3.0854,3.0862,3.0868,3.09,3.0913,3.0781,3.0781,3.0781,0,0,3.0642,3.0646,3.0664,3.0689,3.0695,3.0723,3.0679,3.071,3.0731,3.0694,3.0735,3.0736,3.0745,3.0797,3.0819,3.0799,3.0905,3.0869,3.0875,3.0877,3.0907,3.092,3.0931,3.0785,3.0784,3.0783,0,0,3.0722,3.0727,3.0767,3.0775,3.0785,3.0779,3.0789,3.0793,3.0793,3.0834,3.0807,3.0832,3.0872,3.088,3.089,3.0975,3.0953,3.0982,3.1032,3.1064,3.1074,3.1083,3.1114,3.1126,3.0989,3.0989,3.0989,0,3.0765,3.0806,3.079,3.0824,3.0836,3.0805,3.0846,3.0854,3.087,3.088,3.0857,3.0908,3.0912,3.0966,3.0987,3.0995,3.1006,3.0981,3.1074,3.1083,3.1091,3.1121,3.1133,3.0992,3.0992,3.0992,3.0991,0,3.0859,3.0888,3.0919,3.0938,3.0953,3.0991,3.098,3.0998,3.0985,3.0981,3.1025,3.1029,3.1051,3.1062,3.1049,3.1115,3.1102,3.1077,3.1037,3.1108,3.1135,3.1146,3.0997,3.0996,3.0995,3.0994,0,0,3.0969,3.0979,3.0991,3.0999,3.101,3.1032,3.1069,3.1091,3.1107,3.112,3.115,3.1186,3.1164,3.1174,3.1162,3.119,3.1258,3.1161,3.1161,3.118,3.1332,3.1351,3.1364,3.1244,3.1246,3.1248,3.1332,0,3.1048,3.1111,3.1098,3.116,3.1187,3.1159,3.1191,3.1201,3.1199,3.1222,3.1219,3.1245,3.1213,3.122,3.1246,3.1244,3.1289,3.1238,3.1272,3.1274,3.1271,3.1379,3.1398,3.1477,3.1342,3.1344,3.1345,0,3.1148,3.1167,3.1231,3.1239,3.125,3.1279,3.1299,3.1322,3.1333,3.1329,3.1343,3.1326,3.1362,3.1322,3.1372,3.1339,3.1352,3.1353,3.1356,3.1358,3.1314,3.1384,3.1502,3.1514,3.1362,3.1361,3.1359,0,3.1223,3.1264,3.1308,3.1316,3.1326,3.1347,3.1352,3.1361,3.1376,3.1394,3.1403,3.1425,3.1437,3.1454,3.1444,3.1415,3.1496,3.1455,3.1495,3.1495,3.1513,3.1512,3.1634,3.1521,3.1521,3.1521,3.1521,0,3.1313,3.1354,3.1342,3.1369,3.1415,3.14,3.1445,3.1447,3.1456,3.1483,3.146,3.1486,3.147,3.1495,3.1487,3.1531,3.1536,3.1535,3.1532,3.1537,3.1537,3.1545,3.154,3.1524,3.1523,3.1523,3.1522,0,3.1403,3.1397,3.1444,3.145,3.1453,3.1486,3.1491,3.1517,3.1514,3.1549,3.1556,3.1552,3.158,3.1572,3.1602,3.1597,3.1652,3.1642,3.1649,3.1646,3.1687,3.1684,3.1819,3.1837,3.1712,3.1713,3.1714,0,3.1461,3.1492,3.1502,3.152,3.1527,3.1554,3.157,3.1557,3.1574,3.1591,3.1615,3.1641,3.1662,3.1709,3.1708,3.1732,3.1723,3.1769,3.1726,3.173,3.1724,3.1722,3.1726,3.1777,3.1778,3.1779,3.178,0,3.1565,3.1561,3.1584,3.1608,3.1627,3.1645,3.166,3.1675,3.1663,3.1684,3.1714,3.173,3.1762,3.1789,3.1811,3.1816,3.1797,3.1794,3.1805,3.181,3.1813,3.1812,3.1672,3.1791,3.179,3.1789,3.1788,3.1788,3.1641,3.1668,3.168,3.1707,3.1718,3.1733,3.1758,3.1759,3.1784,3.1809,3.18,3.1834,3.1846,3.1874,3.1882,3.1909,3.1891,3.1906,3.191,3.1914,3.192,3.1809,3.1912,3.1912,3.1912,3.1912,3.1911,0,3.1743,3.175,3.1776,3.1799,3.1821,3.1802,3.1818,3.1838,3.1869,3.1882,3.1903,3.1938,3.1964,3.1967,3.1992,3.2013,3.2005,3.202,3.2018,3.202,3.1934,3.1922,3.2026,3.2026,3.2026,3.2026,3.2026,3.2026,3.1799,3.1844,3.1842,3.1893,3.1899,3.1933,3.1944,3.1958,3.1969,3.2009,3.2032,3.2033,3.2042,3.2068,3.2092,3.2092,3.2102,3.2121,3.2118,3.2037,3.2026,3.2015,3.2004,3.2124,3.2124,3.2202,3.2203,3.2203]},{"header":{"parameterUnit":"m.s-1","parameterCategory":1,"la1":30.2991,"la2":30.254,"lo1":-89.0895,"lo2":-89.0444,"dy":0.0017,"dx":0.0017,"nx":28,"ny":28,"refTime":"2025-04-11T03:00:00:Z","depth":0,"parameterNumber":3,"parameterNumberName":"V-component_of_WINDS"},"data":[0,0,0,0,0,0,0,0,0,0,0,0,0,0,0,0,0,0,0,0,0,0,0,0,0,0,0,0,0,0,0,0,0,0,0,0,0,0,0,0,0,0,0,0,0,0,0,0,0,0,0,0,0,0,0,0,0,0,-5.5583,-5.5584,0,-5.5656,-5.5656,-5.5657,-5.5606,-5.5603,-5.5601,-5.5599,-5.567,-5.5674,-5.5678,0,0,0,0,0,0,0,0,0,0,0,0,0,-5.5396,-5.54,-5.5583,-5.5584,-5.5585,-5.5655,-5.5656,-5.5657,-5.5606,-5.5603,-5.5601,-5.5598,-5.5668,-5.5673,-5.5678,0,0,0,0,0,0,0,0,0,0,0,0,0,-5.5474,-5.5401,-5.5583,-5.5568,-5.5567,-5.5655,-5.5656,-5.5658,-5.5607,-5.5603,-5.56,-5.5597,-5.5667,-5.5673,-5.5679,-5.5784,0,0,-5.5697,-5.57,0,0,0,0,0,0,0,0,-5.5469,-5.5481,-5.5569,-5.5569,-5.5568,-5.5618,-5.5617,-5.57,-5.5608,-5.5592,-5.5599,-5.5595,-5.5655,-5.5662,-5.5683,-5.5788,-5.5791,-5.5698,-5.5701,-5.5704,-5.5706,0,0,0,0,0,0,0,-5.5464,-5.5477,-5.5611,-5.557,-5.557,-5.5556,-5.5563,-5.5632,-5.5642,-5.5593,-5.5589,-5.5599,-5.5654,-5.5677,-5.5684,-5.5792,-5.5697,-5.5703,-5.5707,-5.5709,-5.5987,-5.5991,0,0,0,0,0,0,-5.5461,-5.5473,-5.5609,-5.5614,-5.551,-5.5562,-5.5571,-5.5606,-5.5641,-5.5643,-5.5602,-5.5596,-5.5669,-5.5677,-5.5687,-5.5813,-5.5704,-5.5709,-5.5713,-5.5984,-5.5988,-5.5992,0,0,0,0,0,0,-5.5457,-5.5473,-5.5606,-5.5543,-5.5558,-5.5569,-5.5609,-5.5609,-5.5632,-5.5647,-5.5648,-5.5624,-5.5666,-5.5678,-5.5761,-5.5815,-5.5712,-5.5718,-5.5979,-5.5985,-5.599,-5.6067,0,0,0,0,0,0,-5.5452,-5.5472,-5.5513,-5.5544,-5.5562,-5.5681,-5.5612,-5.5613,-5.5643,-5.5636,-5.5668,-5.567,-5.5665,-5.5752,-5.5767,-5.5821,-5.5722,-5.5974,-5.5982,-5.5989,-5.606,-5.6075,-5.6088,0,0,0,0,0,-5.5445,-5.5531,-5.5516,-5.5532,-5.5614,-5.5684,-5.5694,-5.5687,-5.5647,-5.5688,-5.5698,-5.5669,-5.5807,-5.5761,-5.5777,-5.5834,-5.5971,-5.598,-5.5988,-5.6054,-5.6072,-5.6087,0,0,0,0,0,0,-5.5505,-5.5535,-5.5518,-5.5616,-5.5648,-5.5675,-5.5726,-5.5706,-5.5749,-5.574,-5.5728,-5.5736,-5.5823,-5.5837,-5.5786,-5.5939,-5.5882,-5.5895,-5.5927,-5.5944,-5.5958,-5.5953,-5.5727,0,0,0,0,0,-5.5529,-5.5585,-5.5608,-5.5692,-5.5709,-5.5715,-5.5745,-5.5737,-5.5769,-5.5782,-5.5798,-5.5829,-5.5879,-5.5912,-5.5959,-5.6062,-5.6068,-5.6109,-5.6123,-5.6134,-5.6144,-5.62,-5.6219,-5.602,-5.602,-5.602,0,0,-5.5581,-5.5604,-5.5639,-5.5705,-5.5728,-5.5785,-5.5727,-5.5789,-5.5831,-5.5791,-5.5871,-5.5884,-5.5917,-5.6011,-5.6053,-5.6025,-5.6201,-5.6145,-5.6154,-5.6158,-5.6211,-5.623,-5.6246,-5.6026,-5.6025,-5.6024,0,0,-5.5703,-5.5727,-5.58,-5.5826,-5.5863,-5.5867,-5.5884,-5.5915,-5.5922,-5.6003,-5.5974,-5.6023,-5.6109,-5.6135,-5.6159,-5.6293,-5.6268,-5.6308,-5.6381,-5.6435,-5.6451,-5.6465,-5.6513,-5.653,-5.6319,-5.6319,-5.6319,0,-5.5762,-5.5848,-5.584,-5.5906,-5.5935,-5.5903,-5.5977,-5.6001,-5.6052,-5.6072,-5.6041,-5.615,-5.617,-5.6269,-5.6302,-5.6322,-5.6342,-5.6305,-5.6449,-5.6463,-5.6476,-5.6522,-5.654,-5.6324,-5.6323,-5.6323,-5.6322,0,-5.5919,-5.5979,-5.6034,-5.6085,-5.612,-5.619,-5.6191,-5.6228,-5.6217,-5.6224,-5.6306,-5.633,-5.6381,-5.6404,-5.6393,-5.6502,-5.6484,-5.6451,-5.6394,-5.65,-5.6543,-5.656,-5.6331,-5.6329,-5.6328,-5.6326,0,0,-5.608,-5.6128,-5.6148,-5.6171,-5.621,-5.6256,-5.6324,-5.6376,-5.6408,-5.6443,-5.65,-5.6574,-5.6545,-5.6572,-5.6564,-5.6612,-5.6717,-5.6573,-5.6574,-5.66,-5.6839,-5.6864,-5.6884,-5.6701,-5.6704,-5.6706,-5.6836,0,-5.6206,-5.6326,-5.6321,-5.6432,-5.6488,-5.6458,-5.6517,-5.6547,-5.6556,-5.6603,-5.6611,-5.6665,-5.6621,-5.6638,-5.6684,-5.6695,-5.6765,-5.6685,-5.6752,-5.6755,-5.6745,-5.6906,-5.6932,-5.7054,-5.6853,-5.6856,-5.6858,0,-5.6368,-5.6411,-5.6529,-5.6561,-5.6584,-5.6637,-5.6685,-5.6731,-5.6764,-5.6767,-5.6799,-5.6783,-5.685,-5.6792,-5.6885,-5.6831,-5.6858,-5.6868,-5.6872,-5.6878,-5.6813,-5.6917,-5.7092,-5.7111,-5.6884,-5.6882,-5.688,0,-5.6475,-5.6562,-5.6644,-5.6665,-5.6704,-5.6742,-5.676,-5.679,-5.6822,-5.6863,-5.6884,-5.6932,-5.6958,-5.6995,-5.6993,-5.695,-5.7087,-5.7028,-5.7091,-5.7091,-5.7121,-5.7119,-5.7303,-5.7138,-5.7138,-5.7138,-5.7137,0,-5.6615,-5.6689,-5.6693,-5.6743,-5.6824,-5.6818,-5.6898,-5.6911,-5.6939,-5.6991,-5.6967,-5.7016,-5.701,-5.7059,-5.7057,-5.7134,-5.7146,-5.715,-5.7149,-5.7152,-5.7152,-5.717,-5.7162,-5.7142,-5.7141,-5.714,-5.714,0,-5.6748,-5.6754,-5.6842,-5.6873,-5.6882,-5.694,-5.6966,-5.7013,-5.702,-5.7086,-5.7101,-5.7111,-5.7168,-5.7169,-5.7233,-5.7232,-5.7327,-5.7316,-5.7316,-5.7314,-5.7377,-5.7371,-5.7579,-5.7606,-5.7423,-5.7425,-5.7427,0,-5.6838,-5.6894,-5.6931,-5.6965,-5.6986,-5.7041,-5.7074,-5.7069,-5.7104,-5.7147,-5.7189,-5.7244,-5.7288,-5.7379,-5.7392,-5.7441,-5.7431,-5.75,-5.7438,-5.744,-5.7432,-5.7429,-5.7435,-5.7513,-5.7515,-5.7516,-5.7518,0,-5.6996,-5.6997,-5.7046,-5.7097,-5.7138,-5.7177,-5.7213,-5.7242,-5.7242,-5.7282,-5.7341,-5.7375,-5.7441,-5.7496,-5.7544,-5.7561,-5.754,-5.7537,-5.7554,-5.7559,-5.7557,-5.756,-5.735,-5.7532,-5.7531,-5.753,-5.7529,-5.7528,-5.711,-5.7159,-5.7194,-5.7249,-5.7277,-5.7312,-5.7358,-5.7372,-5.7421,-5.7476,-5.747,-5.7535,-5.7567,-5.763,-5.7651,-5.7701,-5.7677,-5.7701,-5.7708,-5.7714,-5.7721,-5.7549,-5.7709,-5.7709,-5.7709,-5.7708,-5.7708,0,-5.7268,-5.7289,-5.7341,-5.7394,-5.7437,-5.7415,-5.7454,-5.7492,-5.7551,-5.7583,-5.7627,-5.7694,-5.7748,-5.7765,-5.7816,-5.7853,-5.7844,-5.7867,-5.7864,-5.7868,-5.774,-5.772,-5.7873,-5.7873,-5.7873,-5.7873,-5.7873,-5.7872,-5.7355,-5.7437,-5.7442,-5.7537,-5.7557,-5.7622,-5.7646,-5.7678,-5.7704,-5.7781,-5.7826,-5.7838,-5.7864,-5.7917,-5.7965,-5.7968,-5.7988,-5.8015,-5.8014,-5.7894,-5.7877,-5.7861,-5.7843,-5.8019,-5.8019,-5.8139,-5.814,-5.814]}]]